Location: *
(2.5500°S, 65.9667°W)
Time: 12:18:42
(UTC+00:00)

Cosmos 2173 Rocket - Pass Details

Date: 30 May 2022
Orbit: 945 x 1000 km, 83.0° (Epoch: 28 June)

Event Time Altitude Azimuth Distance (km) Brightness Sun altitude
Rises 09:50:52 0° 11° (N) 3,649 7.5 -8.0°
Reaches altitude 10° 09:53:29 10° 18° (NNE) 2,713 6.9 -7.4°
Maximum altitude 09:59:20 43° 88° (E) 1,349 5.4 -6.1°
Drops below altitude 10° 10:05:16 10° 157° (SSE) 2,758 6.4 -4.7°
Sets 10:07:56 0° 164° (SSE) 3,715 7.0 -4.1°
